Flag for Germany Weather past 2 weeks in Kaiserslautern, Rhineland-Palatinate, Germany

Now
88 °F

Sunny.


Feels Like: 87 °F
Forecast: 62 / 89 °F
Wind: 5 mph from North

Location: Ramstein

Current Time: Aug 30, 2015 at 2:35:10 PM

Latest Report: Aug 30, 2015 at 1:58 PM


Visibility: N/A

Pressure: 30.04 "Hg

Humidity: 35%

Dew point: 57 °F

Location of KaiserslauternLocation

Historic Weather in Kaiserslautern — Graph

°F

Kaiserslautern temperature yesterday

Maximum temperature yesterday: 88 °F (at 3:58 PM)
Minimum temperature yesterday: 61 °F (at 1:02 AM)
Average temperature yesterday: 72 °F

Past Weeks' High & Low Weather Summary

 TemperatureHumidityPressure
High88 °F (Aug 29, 3:58 PM)100% (Aug 16, 10:00 AM)30.27 "Hg (Aug 16, 10:00 AM)
Low43 °F (Aug 19, 6:58 AM)26% (Aug 22, 3:58 PM)29.66 "Hg (Aug 24, 12:58 PM)
Average64 °F72%30.00 "Hg
* Reported Aug 15 12:58 PM — Aug 30 12:58 PM, Kaiserslautern, Weather by CustomWeather, © 2015

Note: Actual official high and low records may vary slightly from our data, if they occured in-between our weather recording intervals... More about our weather records

Advertising

Kaiserslautern weather history for previous 24 hours

 ConditionsComfort  
Time TempWeatherWind HumidityBarometerVisibility
12:58 PM
Sun, Aug 30
85 °FSunny.8 mph38%30.05 "HgN/A
11:58 AM84 °FSunny.8 mph41%30.06 "HgN/A
10:58 AM81 °FSunny.8 mph45%30.06 "HgN/A
9:58 AM76 °FSunny.2 mph61%30.08 "HgN/A
8:58 AM68 °FSunny.1 mph95%30.08 "HgN/A
8:01 AM63 °FPassing clouds.No wind100%30.10 "HgN/A
7:58 AM63 °FSunny.No wind100%30.08 "HgN/A
7:00 AM59 °FFog.No wind100%30.09 "Hg2 mi
5:58 AM61 °FClear.2 mph100%30.06 "HgN/A
4:58 AM61 °FFog.No wind100%30.06 "Hg6 mi
3:58 AM63 °FFog.No wind94%30.06 "Hg5 mi
2:58 AM65 °FClear.No wind99%30.05 "HgN/A
1:58 AM66 °FClear.2 mph100%30.06 "HgN/A
12:58 AM66 °FClear.No wind100%30.08 "HgN/A
11:58 PM
Sat, Aug 29
66 °FClear.2 mph100%30.09 "HgN/A
10:58 PM69 °FClear.2 mph94%30.09 "HgN/A
9:58 PM70 °FClear.No wind92%30.09 "HgN/A
8:58 PM74 °FSunny.5 mph76%30.09 "HgN/A
7:58 PM81 °FSunny.7 mph59%30.07 "HgN/A
6:58 PM84 °FSunny.8 mph54%30.07 "HgN/A
5:58 PM86 °FSunny.7 mph50%30.08 "HgN/A
4:58 PM85 °FSunny.5 mph45%30.09 "HgN/A
3:58 PM88 °FScattered clouds.1 mph43%30.10 "HgN/A
2:58 PM86 °FSunny.5 mph46%30.11 "HgN/A
Weather by CustomWeather, © 2015

See weather overviewHow to use our weather pages